FENGYUN 1C DEB, 31487

Orbit data source: Space-Track

FENGYUN 1C DEB, 31487 is space debris in SSO originally from a launch on Mon, 10 May 1999 UTC launched from the Taiyaun Space Center, China (TSC). Fengyun 1C debris stems from the Chinese weather satellite Fengyun-1C, which was intentionally destroyed by a Chinese anti-satellite missile in 2007. This event dramatically increased the amount of space debris, with thousands of trackable fragments posing hazards to satellites and human spaceflight. The Fengyun 1C debris cloud has become a focal point in discussions about space sustainability and the need for international regulations to prevent the creation of new debris.

Loading next visibility...
Identifier
31487, 1999-025BWB
Orbit
SSO
Country
Flag of CNCN / PRC
Related business
Manufacturer
Unknown
Mission
Spacecraft
Bus & Motor
Unknown
Mass
Unknown
Launch date (UTC)
1999-05-10 (27 years ago)
Launch vehicle
Unknown
Launch site
Taiyaun Space Center, China (TSC)
Object type
Payload
Rocket body
Debris
Shape & HBR
Unknown shape, 0.1 m
Radar Cross Section
Medium (>0.1 m² and <1 m²)

Expand to show TLE details & history
Last TLE update: 3 days ago

TLE from 3 days ago
0 FENGYUN 1C DEB
1 31487U 99025BWB 26166.93568199  .00001327  00000-0  92329-3 0  9990
2 31487 102.4066  44.9173 0116080 219.8728 156.1197 13.98457495970006
Epoch: 2026-06-15T22:27Z
TLE epoch observation values (Epoch: 2026-06-15T22:27:22.923Z)
Latitude
16.11172°
Longitude
160.2325°
Altitude
978.641 km
Speed
7.324 km/s
True Right ascension
02h 45m 10s
True Declination
16° 01' 23"
Sunlit
Object was in daylight at epoch
Visualization orbit readout
Latitude
Unknown
Longitude
Unknown
Altitude
Unknown
Speed
Unknown
Apparent Right ascension
Unknown
Apparent Declination
Unknown
Sunlit
N/A
Visualization observer readout
Local Sidereal Time
07:55:43
Azimuth
Unknown
Elevation
Unknown
Doppler factor
Unknown
Orbital elements
Apogee altitude
980.984 km
Perigee altitude
812.095 km
Semi-major axis
7,274.676 km
Eccentricity
0.01161
Inclination
102.4066°
RAAN
44.9173°
Arg. of periapsis
219.8728°
True anomaly
156.65113°
Mean anomaly
156.1197°
Eccentric anomaly
156.38612°
Mean motion
3.49802 °/min
Orbital period
102.92 mins
BSTAR
0.00092329
Loading maneuver chart data...
Computing Atmospheric mass density...
Loading historical data...
Loading historical data...
Loading historical data...
Loading historical data...
Loading historical data...
Loading historical data...
Loading historical data...

Documentation

Showing up to 5 results
|